Theta_e
294 287 286 287 290 291 290 290 292 292 291 288 286 284 285 286 287 289 291 292 289 288 288 290 291 291 292 293 295 295 295 294 294 294 295 294 294 295 296 296 296 296 297 301 298 298 296 296 297 298 298 297 297 296 295 294 294 294 294 293 293 293 293 293 292 291 291 290 289 289 290 290 290 289 289 289 289 288 289 289 289 289 288 288 287 287
293 287 287 291 293 292 290 291 291 290 288 288 287 285 287 285 286 290 291 292 288 288 287 289 290 290 292 293 295 295 292 293 294 295 295 295 295 295 295 296 297 298 299 299 297 295 294 295 296 296 296 296 295 295 294 294 294 294 293 293 293 293 293 293 293 292 292 292 292 291 291 291 290 289 289 288 288 289 289 289 289 288 287 287 287 287
286 286 290 292 294 291 290 289 288 289 288 287 286 286 284 286 288 291 291 293 291 286 288 290 289 290 291 292 294 294 294 296 296 296 297 297 296 295 295 296 296 297 298 299 299 297 294 294 295 295 296 296 297 296 295 295 294 293 293 293 293 293 293 293 293 292 292 292 292 291 290 291 289 289 289 289 289 289 288 288 288 288 287 287 286 286
284 286 292 294 291 290 290 288 287 286 286 284 285 282 284 288 284 286 286 288 287 289 283 282 285 288 290 291 291 294 295 296 297 296 296 297 296 296 297 297 298 297 297 297 298 299 294 293 294 294 294 295 296 295 294 294 293 293 293 293 293 292 292 293 293 293 292 292 290 289 289 289 289 287 288 287 287 287 287 287 288 288 287 287 286 286
289 291 292 292 290 290 290 289 287 286 287 287 287 286 286 287 288 287 287 286 287 287 286 287 287 287 289 290 291 293 295 294 295 295 295 296 296 297 298 298 298 298 298 298 298 297 292 292 293 294 295 295 295 295 294 294 294 293 293 293 293 293 292 293 293 293 291 290 288 287 287 287 286 286 286 285 285 286 287 287 287 287 287 287 286 286
288 292 290 290 289 289 288 287 287 288 287 286 286 289 290 290 288 288 288 286 283 282 284 285 282 285 286 289 290 292 292 292 294 294 294 295 296 296 296 297 298 299 299 299 299 299 294 293 293 293 293 293 295 295 295 295 294 294 293 292 292 292 292 292 292 292 291 290 289 287 287 286 286 285 285 286 286 285 286 287 287 287 287 287 286 286
289 292 292 291 289 288 287 287 288 289 288 285 284 289 291 289 288 286 285 284 280 278 285 285 280 282 283 285 287 289 290 291 292 292 293 295 295 295 296 297 298 298 298 297 297 297 293 292 293 293 293 294 294 295 295 294 294 293 293 292 292 292 292 292 292 291 291 290 289 289 289 288 287 287 287 288 287 287 287 287 287 287 286 287 286 285
288 288 289 290 289 287 285 285 290 290 288 284 284 285 287 286 284 285 284 284 284 282 284 284 283 281 283 287 288 290 291 290 291 292 293 294 295 294 295 296 297 298 297 296 295 296 295 294 293 293 293 293 295 295 293 293 293 293 292 292 292 292 292 292 292 291 291 290 289 288 288 289 288 288 288 287 287 287 287 286 287 286 286 286 286 285
288 286 286 286 286 285 287 291 289 290 288 284 286 285 285 286 285 284 285 283 281 280 281 282 282 281 283 286 291 290 286 287 290 293 295 296 296 295 295 295 296 297 297 296 295 295 295 294 293 294 293 294 293 292 293 293 293 293 292 292 292 292 291 291 291 291 290 291 290 289 289 288 289 288 287 287 287 287 287 286 286 286 285 285 285 285
288 289 288 290 287 286 290 288 289 290 287 287 287 286 284 283 282 284 283 285 280 280 280 280 283 280 283 288 283 286 287 287 290 292 295 296 296 296 296 296 296 297 297 297 296 296 295 294 293 293 293 291 292 292 292 292 292 292 291 291 291 291 291 291 290 291 290 290 290 289 288 288 288 287 285 286 286 286 285 285 285 285 285 285 285 284
288 291 291 288 288 290 287 286 286 287 289 287 286 286 282 282 279 278 278 279 280 279 281 282 284 283 279 284 284 285 285 289 291 290 292 293 294 296 296 296 297 297 298 297 296 294 293 291 292 291 292 291 290 290 291 291 291 291 291 291 291 291 291 291 290 290 290 290 290 289 289 288 288 286 285 285 285 285 284 285 285 285 285 285 284 284
289 289 289 287 290 287 286 286 285 284 285 287 288 281 284 284 277 276 272 277 275 277 281 283 283 284 279 280 281 286 285 286 289 289 292 293 294 295 296 296 296 297 297 295 293 294 292 290 289 289 290 290 290 289 290 290 291 291 291 291 290 290 290 290 290 290 290 290 290 289 289 288 288 287 286 285 285 285 285 285 285 285 284 284 284 283
284 287 287 290 290 293 286 287 284 281 285 285 282 283 280 274 273 272 271 271 272 279 279 281 283 280 282 287 284 285 287 286 288 292 292 293 293 294 294 295 296 296 292 292 293 293 292 292 290 290 290 289 289 290 290 290 291 291 291 290 290 290 290 290 290 290 290 289 289 290 289 289 289 288 287 286 286 286 285 285 285 284 284 284 283 283
283 283 286 288 290 291 291 286 282 283 284 284 285 281 278 273 271 268 268 268 272 278 279 280 282 282 286 285 289 292 294 295 293 292 292 293 294 294 294 295 295 293 292 293 293 293 293 292 291 291 291 290 290 289 290 290 290 290 291 290 290 291 290 290 289 289 289 290 290 290 290 289 289 288 287 287 287 286 286 286 285 285 284 284 284 283
279 284 284 287 285 289 292 292 290 289 284 287 285 287 284 280 271 269 272 278 280 282 277 278 277 276 276 282 285 292 291 289 289 292 292 291 291 292 292 291 291 291 292 293 291 292 293 293 292 291 291 291 290 290 290 290 290 290 290 290 290 290 290 290 290 289 289 290 290 290 290 289 289 288 288 288 288 287 286 286 285 285 285 284 284 284
285 285 286 292 287 290 291 294 292 283 284 283 283 281 280 282 282 282 284 281 282 276 276 274 279 278 285 287 288 285 288 291 289 289 289 292 292 292 292 294 294 295 294 291 291 292 292 291 291 291 291 291 290 289 289 289 289 289 290 290 290 290 290 290 289 289 289 290 290 289 289 289 289 288 288 288 287 287 287 286 286 285 285 285 285 284
284 282 288 290 287 290 291 291 291 292 281 282 285 282 287 285 286 283 281 280 278 275 279 281 278 283 286 292 293 294 290 289 288 289 289 290 292 292 292 293 294 294 292 291 291 292 292 290 290 291 291 291 290 289 289 290 290 290 290 290 289 290 290 289 290 290 290 289 289 289 289 289 288 288 287 287 287 287 286 286 286 285 285 285 284 284
286 288 290 287 288 288 283 286 287 286 287 283 280 284 286 286 283 282 276 274 277 277 279 285 282 283 281 282 284 284 285 286 286 287 288 289 289 289 291 292 293 293 292 291 291 290 290 291 291 291 291 291 291 291 290 290 290 291 290 290 290 289 289 290 290 289 289 289 289 289 289 289 289 288 288 288 287 286 285 285 285 285 284 284 284 284
290 284 289 287 289 287 286 289 288 288 287 285 283 286 285 278 278 280 273 274 276 276 277 279 284 284 285 285 287 286 288 287 287 286 286 288 288 288 290 292 292 292 291 292 292 292 292 292 292 292 291 292 291 291 291 290 290 290 289 290 290 289 290 290 290 289 289 289 289 289 289 288 288 288 288 287 287 285 285 284 285 284 284 284 283 283
289 284 286 287 288 287 285 286 281 284 286 286 287 284 283 282 279 277 281 276 280 278 280 280 283 281 288 283 286 284 285 284 284 284 286 288 289 290 290 291 292 292 293 293 293 294 294 294 294 293 292 291 291 290 290 289 289 289 290 289 289 290 289 288 289 289 289 289 289 289 289 288 288 288 287 287 286 285 285 284 284 284 283 283 283 282
286 288 281 288 285 286 282 284 282 286 283 284 285 283 284 283 282 282 282 280 282 280 279 279 278 283 289 284 285 285 282 282 287 289 290 292 293 295 294 293 293 293 293 293 293 295 295 294 293 292 291 290 288 287 287 288 289 289 289 288 289 289 289 288 289 289 289 289 289 288 288 288 287 287 287 286 285 285 284 284 284 284 283 282 282 282
286 284 284 284 284 285 288 287 286 286 288 286 287 285 287 285 282 281 279 285 280 281 279 280 278 285 291 293 289 287 285 288 291 290 292 292 293 293 294 293 292 293 293 293 296 297 296 294 292 291 288 287 286 287 288 289 287 287 288 289 289 288 288 288 288 288 288 288 288 287 287 287 287 286 286 285 285 284 284 284 284 283 282 282 282 281
290 285 285 283 285 287 289 290 288 288 288 287 287 286 289 288 286 283 278 282 283 282 285 283 280 282 294 295 296 295 295 295 293 291 293 293 291 290 291 291 292 292 292 294 294 293 293 294 293 292 289 288 288 289 287 286 287 288 288 288 288 288 288 288 289 289 288 288 287 287 287 287 286 285 285 285 284 284 284 284 283 282 282 281 281 281
292 286 281 285 288 289 292 293 291 286 286 285 285 287 285 284 286 285 285 284 282 283 282 282 279 282 293 293 295 296 295 295 293 292 292 292 292 292 290 291 291 291 292 292 291 290 291 289 290 291 291 291 290 289 289 288 288 288 288 288 288 288 288 288 288 288 288 287 287 287 286 286 285 284 284 284 285 284 284 283 282 282 281 281 281 280
287 286 287 282 282 284 285 286 288 286 285 283 283 286 287 288 287 287 286 284 282 283 283 280 276 282 292 294 295 295 295 294 295 295 295 293 294 293 291 292 292 291 291 291 290 288 287 288 289 292 292 292 292 291 290 289 289 288 288 288 288 288 289 288 288 287 287 287 287 286 286 285 285 284 284 284 285 284 284 283 282 281 281 280 280 280
290 287 286 279 277 276 276 278 279 283 286 287 283 286 287 287 286 284 281 283 279 283 284 281 280 286 291 293 293 294 294 294 295 296 297 296 294 294 294 293 291 290 291 291 288 287 288 290 291 291 291 292 292 291 291 291 290 290 289 288 288 288 288 288 288 287 287 287 286 286 285 285 284 284 284 284 284 284 283 282 281 281 281 280 279 279
284 288 288 287 285 283 285 286 290 288 285 286 284 286 288 288 288 288 287 283 281 284 283 284 285 285 287 290 291 292 293 293 295 296 296 296 295 294 292 291 291 292 293 292 289 288 288 288 289 291 292 292 291 291 291 291 291 291 290 289 288 288 288 288 287 287 287 286 286 286 285 285 284 285 285 285 284 284 283 282 281 280 280 280 279 278
282 284 287 288 287 288 289 288 290 290 287 287 287 286 288 287 287 286 284 282 287 284 279 286 287 285 286 290 292 293 294 295 295 296 296 297 297 297 295 292 292 291 290 287 287 289 290 291 292 292 291 290 291 291 291 291 291 291 290 290 289 288 288 288 287 287 286 286 286 285 285 285 285 285 285 284 284 283 282 282 281 280 280 279 279 278
282 284 287 287 286 288 289 289 290 289 289 288 288 287 287 288 287 284 284 286 286 283 281 286 288 285 288 290 292 293 294 294 295 296 297 297 297 298 297 296 295 290 286 286 287 289 290 292 294 294 294 293 291 290 291 293 292 291 290 290 289 288 287 288 287 287 286 286 286 285 285 285 285 285 284 283 283 282 282 281 280 280 279 278 278 278
286 285 287 287 286 287 287 288 289 287 287 287 287 287 288 287 287 287 286 287 286 285 287 287 287 286 289 291 292 294 295 295 296 297 297 296 296 296 296 296 295 295 290 289 291 292 292 292 293 294 294 295 295 294 294 294 294 294 292 291 290 289 288 287 287 287 286 286 286 286 286 285 284 284 283 283 282 282 281 281 280 279 278 277 277 277
287 284 290 287 285 284 287 288 288 287 286 284 286 287 287 287 287 287 287 287 288 287 287 287 286 286 291 294 293 295 295 296 296 295 295 296 296 296 296 295 293 292 292 293 293 293 293 294 294 294 294 294 295 295 295 294 294 293 292 291 290 289 288 287 287 287 287 286 287 286 286 285 284 283 283 283 282 282 281 280 279 278 277 277 276 275
286 283 287 285 282 282 286 286 286 287 286 284 284 285 285 285 284 286 285 288 286 285 286 286 284 285 291 294 294 294 294 294 293 294 294 295 296 294 290 288 288 288 288 288 288 289 289 289 290 291 292 293 294 294 294 293 292 291 290 290 288 289 288 287 287 286 286 286 286 286 285 285 284 283 282 282 281 280 280 279 277 277 276 275 275 274
285 283 282 283 280 280 285 286 285 285 283 280 281 285 287 287 288 288 289 289 288 289 285 283 284 290 291 291 290 290 291 292 292 293 294 290 287 286 286 287 286 287 287 287 286 286 287 287 288 289 290 291 292 293 293 293 292 292 291 290 289 288 286 286 286 286 286 286 285 285 285 284 283 282 281 281 281 280 278 277 277 276 275 275 274 273
285 284 282 285 278 279 284 284 285 281 274 277 288 290 290 287 288 286 286 288 290 290 288 289 287 284 282 283 283 282 283 285 286 290 287 285 285 285 285 285 285 285 286 286 286 285 286 287 287 288 289 289 290 291 292 293 292 292 292 290 286 285 286 286 286 286 286 286 285 284 284 283 282 281 281 280 279 278 277 276 276 276 275 274 273 272
283 283 282 283 279 277 282 281 277 272 274 285 288 290 291 291 291 289 289 290 290 288 284 281 282 283 282 282 282 282 282 283 285 287 285 284 284 283 282 283 284 284 284 284 284 285 285 286 286 287 287 288 289 290 290 290 290 290 290 288 285 285 285 285 285 285 285 284 284 283 283 282 281 281 280 279 278 277 276 276 276 275 274 273 273 272
281 281 281 281 281 281 279 278 270 272 284 283 287 288 288 288 287 287 286 286 280 282 281 279 281 283 282 281 282 282 282 282 285 284 284 283 283 282 282 282 283 283 283 283 284 284 285 285 285 286 287 288 288 288 288 288 288 287 288 287 285 284 283 284 284 284 284 283 283 283 283 282 281 280 279 278 277 276 276 275 275 274 274 273 272 272
284 283 282 278 283 275 277 277 276 283 282 283 283 280 279 278 279 279 278 277 276 278 280 280 281 282 280 281 281 281 282 281 280 283 284 283 283 283 283 283 283 283 283 284 284 284 285 285 285 286 287 287 286 286 287 286 285 285 286 285 283 281 281 282 283 283 283 283 283 283 283 282 281 280 278 277 276 275 275 275 274 274 273 272 272 272
286 282 283 279 278 283 276 276 277 276 273 277 275 280 284 283 283 283 281 278 277 278 281 281 281 280 279 281 279 280 281 278 275 277 281 282 283 283 284 284 284 284 284 284 284 284 285 285 286 287 287 287 287 287 284 281 281 282 282 281 278 277 278 278 281 282 282 283 283 283 282 282 281 279 278 276 276 275 276 275 275 274 272 272 271 271
280 284 282 278 278 278 274 271 270 270 273 274 276 279 282 282 281 282 278 275 277 277 281 282 281 279 279 279 279 280 277 273 274 277 281 282 283 284 283 283 284 284 284 284 284 284 285 285 286 287 287 288 287 287 283 280 279 280 278 277 276 276 276 278 279 278 279 280 280 279 279 279 280 279 277 276 276 276 275 275 274 273 272 272 272 271
274 275 279 276 276 277 276 273 272 275 271 276 277 280 281 282 283 282 273 272 275 278 281 281 280 280 280 279 279 279 276 272 274 278 282 283 284 284 284 284 284 284 285 286 286 286 286 287 287 287 287 287 287 286 283 281 282 281 279 277 276 276 277 277 276 276 277 278 278 276 277 278 279 279 278 277 276 276 275 275 273 272 271 272 271 271
268 268 271 270 272 272 274 271 274 274 277 277 277 281 280 282 282 273 267 271 278 279 281 281 281 280 280 279 279 276 279 280 280 282 283 283 283 283 285 285 285 285 285 285 285 287 286 287 287 286 287 288 288 286 284 282 282 283 280 277 277 279 279 277 277 278 277 276 276 277 278 278 279 278 277 276 275 275 274 274 273 272 271 271 270 270
268 270 268 272 268 268 269 268 268 272 277 277 279 280 281 276 266 264 275 281 281 280 282 282 281 281 281 280 279 279 280 281 282 282 282 282 283 283 284 284 284 285 285 285 286 286 286 286 286 286 287 288 288 287 285 282 282 283 281 279 281 282 277 276 277 276 277 278 278 277 278 278 278 278 276 275 275 274 273 273 272 271 271 270 270 269
271 271 267 269 269 270 269 267 267 265 273 278 278 276 279 268 268 276 278 280 281 281 281 281 281 281 281 279 280 280 280 281 281 281 282 282 282 282 282 283 283 283 283 283 284 285 285 285 285 286 286 287 287 287 287 283 282 283 281 280 283 279 275 275 275 276 276 277 277 276 277 276 276 276 275 274 274 273 272 271 270 270 270 269 269 269
274 267 266 268 273 267 268 267 268 274 276 281 277 270 276 276 278 279 279 278 281 281 280 280 280 281 281 280 279 280 280 281 281 280 280 280 281 281 282 282 282 282 282 283 284 284 285 285 285 285 286 287 287 287 287 286 284 283 281 282 283 278 273 273 273 273 274 275 276 275 274 275 275 274 274 273 273 272 271 270 269 269 269 269 268 268
274 270 272 270 275 270 266 272 275 278 280 280 279 278 278 279 280 279 281 281 280 280 280 278 279 279 280 279 280 280 279 279 278 279 278 279 279 280 280 280 281 281 281 282 282 284 284 284 284 285 285 286 286 286 286 286 285 283 282 285 282 281 278 275 274 275 275 275 274 274 274 273 273 273 272 272 272 271 270 269 269 268 269 269 268 268
273 274 275 273 271 276 277 277 278 277 276 276 277 279 278 278 279 280 280 280 281 281 280 279 278 277 277 277 276 275 276 276 277 277 278 278 278 279 279 280 280 281 281 282 282 283 283 283 283 283 283 283 285 285 286 286 286 285 286 286 283 281 279 276 276 276 276 274 274 273 273 272 272 272 272 272 272 271 271 269 269 268 268 268 268 268
274 275 273 270 272 271 265 274 274 274 276 276 277 278 278 278 278 279 278 279 278 280 279 277 277 277 277 275 275 274 275 275 275 276 276 277 277 277 278 278 279 279 279 280 281 282 281 281 281 281 281 281 283 284 285 285 286 286 286 286 285 281 277 276 276 276 275 274 273 272 272 272 271 271 271 271 271 271 270 269 269 269 268 268 268 268
270 277 271 272 272 270 270 274 275 276 276 277 277 276 276 276 275 275 276 276 277 277 277 277 276 275 275 274 275 274 274 275 274 274 275 275 276 276 276 277 277 278 278 279 279 280 280 279 279 279 280 280 281 283 283 284 285 286 286 285 285 278 276 276 276 276 276 274 273 272 271 272 269 269 270 270 270 270 269 269 269 269 268 268 268 268
275 275 264 268 270 272 274 275 275 276 276 276 276 276 276 275 274 274 275 275 275 274 274 275 274 274 274 274 274 274 273 273 274 273 273 274 274 274 275 275 276 276 276 276 277 278 277 277 278 278 278 279 280 281 282 283 284 285 285 285 284 277 276 276 275 275 274 273 272 271 270 271 270 270 270 270 270 270 270 269 269 269 269 270 270 270
271 271 274 272 268 268 269 272 275 269 269 274 275 275 275 275 275 274 274 273 272 272 272 272 272 273 273 273 273 272 271 272 272 272 271 272 273 273 273 274 274 274 274 275 275 275 275 276 276 276 276 277 278 279 280 281 282 284 285 285 282 277 277 276 275 274 273 272 271 270 269 269 270 269 269 269 269 269 268 270 272 271 269 269 272 274
273 274 274 270 269 268 274 275 276 275 274 275 276 277 274 274 273 272 271 271 271 272 271 271 270 271 271 271 272 271 270 270 270 271 270 271 271 272 272 272 272 272 273 273 273 273 273 273 274 274 274 275 277 277 278 279 280 281 283 283 282 278 277 277 276 274 273 271 270 270 269 269 269 269 269 269 268 268 267 267 269 273 274 272 272 274
Wind_Speed
3 6 7 10 15 14 6 12 18 17 10 5 2 4 11 12 11 9 17 12 3 3 11 15 17 18 17 16 18 17 13 14 16 17 16 12 12 15 15 15 16 15 18 20 7 8 9 10 12 12 11 11 10 10 12 13 15 16 17 15 16 14 14 13 13 12 12 12 9 7 11 13 11 10 8 8 8 8 8 9 9 9 8 8 8 7
3 8 11 17 17 11 12 12 11 9 5 7 7 7 14 6 15 15 14 10 4 6 5 9 16 17 17 17 17 13 8 18 17 18 19 17 14 14 16 18 19 19 14 13 11 7 6 8 9 10 10 9 12 12 14 16 19 17 15 17 16 13 15 15 16 15 14 14 15 16 15 12 11 11 11 11 10 10 9 9 9 8 8 9 9 8
5 11 17 21 13 5 2 3 6 9 9 6 9 9 9 10 15 15 11 16 9 3 12 12 18 17 16 16 14 14 16 18 15 16 20 17 14 14 15 17 19 16 16 16 16 10 7 7 9 10 11 13 17 17 19 19 15 14 16 16 15 15 16 15 15 14 15 12 10 10 8 11 7 6 6 6 6 6 7 8 8 8 8 9 8 8
5 7 21 14 3 5 7 5 4 4 4 5 7 5 12 11 5 12 4 7 0 6 5 4 13 12 11 10 13 16 18 18 16 16 18 16 15 17 18 17 17 16 15 18 20 18 8 8 9 9 10 13 13 12 11 12 17 15 15 15 16 16 15 14 15 15 13 11 6 4 5 5 6 6 4 4 4 5 6 8 8 8 9 9 9 8
17 10 7 6 5 8 12 9 5 8 13 7 11 9 12 12 14 12 8 4 6 5 4 11 15 15 12 17 13 15 19 17 17 17 15 17 14 17 16 14 16 19 19 18 18 15 7 8 11 14 14 11 13 14 16 17 16 14 18 18 17 15 16 14 15 14 10 9 7 6 6 5 5 4 5 5 6 8 8 8 10 11 9 10 9 9
12 9 3 5 8 8 8 7 9 9 16 6 7 14 20 15 11 10 13 9 4 6 3 1 12 15 9 17 17 12 11 12 15 14 17 20 17 15 17 21 20 17 18 19 20 17 9 11 8 8 9 13 14 16 16 16 17 15 14 15 15 12 12 13 13 14 12 12 13 11 10 10 9 9 10 15 17 13 13 14 8 7 10 10 9 9
8 9 7 9 8 8 7 8 9 10 15 6 7 14 17 11 9 8 11 4 6 4 2 1 1 22 6 6 9 9 11 14 9 9 16 17 16 14 15 17 18 17 16 14 14 13 7 10 10 12 14 16 15 16 12 12 13 14 14 15 16 15 13 13 13 15 12 12 12 16 17 16 16 16 14 10 7 11 9 8 11 10 8 10 11 9
3 6 8 7 7 7 6 6 15 14 9 8 3 5 7 6 6 6 5 6 8 0 3 2 6 8 25 7 11 14 15 12 13 14 16 16 16 12 12 16 18 19 15 11 11 12 12 11 14 16 16 14 17 12 10 11 11 14 16 16 16 13 13 13 13 16 15 16 15 15 14 13 14 16 14 12 10 8 8 9 10 9 10 10 10 10
8 4 7 6 6 7 9 20 4 12 8 5 1 7 4 6 5 3 3 3 2 5 9 4 2 5 15 4 12 12 6 7 13 17 18 17 14 13 15 16 16 18 19 12 11 14 14 13 15 14 14 15 9 9 12 14 14 12 11 12 12 13 13 13 15 16 16 15 16 16 13 13 12 11 7 7 6 8 9 10 8 9 9 9 9 9
2 1 6 11 10 11 13 3 7 12 7 4 5 6 5 5 4 1 1 1 4 3 12 7 5 4 23 9 2 1 4 9 12 16 17 16 12 13 13 12 14 14 15 15 14 14 9 10 10 9 5 6 10 8 8 7 8 10 10 13 14 15 13 13 15 16 16 15 13 13 15 17 12 9 6 7 9 9 9 11 10 10 9 9 9 9
3 2 4 5 9 6 4 0 2 5 3 4 4 3 4 7 3 4 6 2 5 9 12 11 11 9 14 5 8 9 8 10 11 5 8 10 11 14 14 14 12 14 15 14 11 7 6 5 5 5 9 9 7 7 9 11 12 12 13 14 16 16 13 13 16 16 17 15 14 15 16 16 15 12 10 10 11 9 9 12 12 11 10 9 10 8
4 1 2 5 4 4 3 3 2 2 2 4 1 2 4 5 6 3 4 3 3 13 5 12 13 13 13 3 4 5 2 2 7 8 11 12 14 14 12 12 13 14 12 6 5 9 5 3 5 6 8 9 10 8 10 10 10 12 13 13 16 14 15 14 14 15 16 15 16 15 15 17 16 14 13 16 15 15 15 14 12 10 8 9 8 8
5 11 6 2 4 10 2 2 1 4 3 5 4 2 3 6 6 3 3 1 6 13 2 5 6 3 21 12 4 8 9 6 7 9 11 12 13 13 13 13 13 12 6 5 7 6 6 8 10 11 10 8 12 14 13 14 13 13 13 16 17 18 16 16 15 17 17 16 17 17 17 16 14 15 16 16 15 14 14 13 12 12 12 10 10 11
9 2 2 4 2 5 8 8 1 2 5 7 7 6 6 5 4 5 5 3 6 7 5 6 2 12 11 6 10 16 18 15 11 9 10 12 13 14 12 10 11 10 7 8 8 8 8 9 9 10 11 13 12 11 12 12 12 13 12 15 17 19 16 14 14 16 17 19 19 16 15 14 13 15 15 14 15 14 13 12 14 14 14 14 15 14
8 12 6 7 5 4 12 12 15 10 10 14 4 14 12 10 6 5 6 13 11 10 2 3 4 8 2 6 4 12 5 4 3 8 7 6 7 8 9 10 11 12 12 10 4 3 6 9 9 10 12 12 12 12 12 12 13 12 12 14 17 14 15 17 19 16 18 18 17 16 15 13 12 14 13 13 12 13 14 13 14 13 12 13 13 13
9 13 6 13 1 10 12 14 7 5 2 2 2 3 1 9 6 11 10 8 10 3 4 3 8 4 9 1 3 2 5 9 5 5 6 10 11 10 12 14 14 13 12 5 2 5 7 6 6 7 9 10 9 11 11 12 12 13 15 16 17 18 16 15 15 16 18 18 14 14 15 17 15 11 11 10 10 12 14 14 15 14 14 12 11 10
1 7 0 4 4 9 10 3 5 9 6 4 7 7 14 2 7 7 4 2 2 1 16 4 6 10 8 17 11 10 7 9 6 7 7 10 13 11 11 13 12 13 9 7 5 7 5 5 6 9 9 9 8 9 14 17 16 19 17 15 16 16 14 16 18 19 17 15 14 16 17 15 14 15 16 16 15 14 11 12 13 13 13 11 10 11
10 10 1 5 6 3 3 1 1 3 3 8 3 9 2 2 4 3 7 1 5 12 11 8 20 12 2 15 3 3 2 5 5 7 5 6 7 8 10 10 11 12 11 9 7 5 5 5 8 8 8 10 13 17 16 17 16 15 15 16 17 14 16 17 18 17 16 17 18 16 17 17 17 16 16 13 12 10 10 11 11 11 11 15 13 11
4 11 10 4 1 3 3 1 5 1 1 3 5 2 5 3 5 3 4 5 7 11 7 8 18 19 12 17 7 7 9 7 6 6 3 5 6 5 6 11 12 13 11 11 10 7 8 10 11 12 14 14 13 11 11 10 8 8 10 13 14 18 20 18 13 10 10 11 12 13 16 17 16 14 14 12 10 10 12 13 13 14 14 11 12 12
1 6 3 3 3 1 1 3 6 4 2 0 1 3 1 1 3 5 8 2 4 15 9 12 12 16 8 4 3 5 9 5 2 3 4 6 6 6 7 7 9 10 11 11 11 11 11 12 13 13 13 13 13 12 9 9 9 12 13 11 12 12 9 9 14 16 16 16 15 14 13 13 14 15 14 13 12 12 14 13 12 12 12 15 12 13
5 1 11 3 2 1 2 5 7 7 7 3 3 5 1 1 3 2 3 3 7 11 10 10 12 8 11 3 4 5 5 5 1 6 8 10 12 14 12 11 10 11 11 10 11 13 13 12 10 9 7 7 5 5 7 9 14 14 10 11 13 15 16 15 16 14 16 14 16 15 16 16 16 16 14 12 13 13 13 11 12 12 12 8 13 14
1 1 10 1 4 7 8 2 7 4 5 6 9 11 13 10 8 10 13 3 3 6 11 11 15 5 5 7 6 5 6 5 6 6 9 9 12 13 11 9 8 10 10 10 12 13 12 9 6 5 4 4 5 6 10 12 8 8 13 16 15 12 11 14 15 15 17 15 15 16 16 15 13 12 11 13 13 14 13 12 12 12 10 14 13 13
5 1 2 7 11 12 8 7 3 4 4 5 6 6 7 9 6 8 15 9 4 3 5 9 12 8 4 11 22 17 16 17 9 7 12 13 9 9 10 9 10 10 10 12 14 13 11 9 6 4 5 6 9 9 8 6 10 13 14 12 12 15 18 18 18 16 14 13 14 16 16 14 12 12 14 15 13 14 15 13 11 10 13 12 12 12
5 2 2 9 5 8 12 13 9 3 3 2 3 6 3 8 10 11 11 6 9 5 8 9 13 6 5 7 16 17 19 17 12 9 14 12 11 11 11 11 13 11 10 12 11 9 9 6 5 6 8 10 10 10 12 12 11 11 10 12 13 16 19 16 16 15 14 14 15 15 12 13 12 13 14 15 15 16 15 13 12 11 12 12 10 13
2 3 8 11 4 5 6 4 9 2 2 5 6 7 9 10 8 8 4 2 9 11 14 14 19 9 9 8 11 17 22 25 25 20 15 14 14 14 11 13 13 12 11 12 11 6 5 6 7 9 10 11 10 9 9 10 10 11 13 13 14 17 18 15 13 11 13 14 16 14 14 14 13 14 15 16 15 16 15 14 13 12 14 12 12 12
9 4 5 8 8 10 7 7 7 8 12 7 3 5 9 12 15 9 12 8 15 10 15 16 15 13 13 10 13 18 22 25 27 27 24 16 13 15 14 12 11 10 12 12 7 4 7 9 9 8 9 9 9 10 10 11 12 12 13 14 14 14 13 13 12 13 14 13 14 14 16 15 14 16 18 18 16 16 15 13 12 13 12 13 14 13
4 6 12 14 15 18 16 16 11 5 3 11 8 15 17 15 18 17 15 15 17 16 19 19 17 18 15 13 15 20 21 22 26 30 30 21 13 13 11 10 9 11 13 9 4 5 6 7 10 11 11 10 9 8 8 9 11 11 12 13 12 13 13 13 12 13 14 15 15 15 16 16 17 18 18 18 17 14 13 14 15 14 15 14 14 14
0 6 14 19 22 21 19 21 18 15 19 13 16 16 15 17 15 17 17 21 16 17 24 10 16 19 20 17 21 23 24 23 24 26 26 24 20 16 12 9 10 10 7 5 6 7 8 9 9 11 10 7 10 10 8 9 11 12 13 15 14 13 12 10 12 15 15 15 15 16 17 17 18 18 17 15 13 13 13 13 13 14 13 13 15 15
4 12 13 14 22 18 21 20 19 20 18 18 17 18 20 20 20 21 23 24 19 19 25 15 18 22 19 16 18 22 24 25 24 24 23 23 23 21 21 20 16 8 4 4 6 9 9 12 13 14 16 14 9 9 11 11 12 12 12 12 12 11 14 14 13 14 15 15 16 17 16 16 15 13 12 13 14 14 14 15 15 13 13 13 14 12
3 13 9 15 20 18 20 19 20 20 21 19 21 20 22 21 24 23 26 22 22 24 22 22 21 25 20 20 20 22 22 21 20 19 19 20 23 25 24 23 17 14 6 6 9 10 10 12 14 15 16 15 14 14 15 14 14 15 15 15 14 13 13 10 14 15 16 16 18 17 16 15 13 13 13 14 15 16 16 14 14 14 14 14 14 13
6 8 11 14 16 16 19 18 20 18 21 22 25 23 24 22 25 26 24 23 23 26 25 28 28 28 19 21 23 21 20 20 20 19 20 23 23 24 24 20 16 16 17 17 17 17 16 15 16 16 15 15 16 17 16 16 15 13 13 14 11 12 12 12 15 15 15 17 17 16 14 12 12 13 15 16 14 12 13 14 13 13 13 13 12 13
3 7 6 11 13 13 10 16 21 21 23 25 26 24 24 24 26 23 22 23 22 27 27 27 23 19 18 21 22 22 22 20 21 21 21 20 19 16 14 13 15 15 15 15 14 15 17 19 18 19 18 17 17 17 15 15 14 13 13 13 11 14 11 12 13 14 15 17 14 13 13 13 13 13 14 12 14 13 13 12 12 13 13 13 13 13
3 5 6 7 13 14 11 13 16 19 19 19 19 24 30 31 27 22 22 23 24 24 23 19 21 15 15 12 12 13 15 15 14 15 16 12 13 11 12 13 12 13 13 13 15 15 15 15 16 17 18 19 18 17 17 16 14 14 14 13 14 8 7 12 13 14 15 14 12 13 13 12 13 14 13 15 14 13 13 15 15 15 15 17 15 12
8 9 10 5 9 7 6 10 8 11 16 12 5 10 18 24 23 26 24 25 24 19 17 11 7 11 14 14 13 11 13 14 14 9 12 11 13 14 14 12 13 12 12 12 13 14 14 14 14 14 15 16 18 18 17 15 13 14 13 9 4 6 11 11 13 13 14 12 12 13 13 12 13 13 14 12 13 13 15 15 17 16 14 12 12 14
15 14 15 9 13 14 12 14 16 21 18 6 5 7 14 21 25 26 24 21 18 11 13 16 15 14 12 9 9 11 13 16 16 1 9 13 13 14 14 14 14 13 14 13 15 15 14 15 16 17 18 19 19 17 15 14 12 11 12 9 6 5 7 9 11 12 12 12 12 10 11 12 13 15 14 14 13 13 14 16 14 14 13 13 15 15
14 14 11 10 9 9 8 9 17 13 1 3 1 2 10 8 8 12 17 8 15 13 13 11 9 8 13 14 13 12 15 17 11 5 9 12 13 12 13 14 15 14 14 13 13 15 14 15 15 16 16 16 16 16 13 12 12 10 12 7 6 6 6 8 9 11 9 9 10 12 13 14 14 14 13 14 14 15 15 15 16 16 13 12 11 10
14 11 9 12 8 15 13 16 23 15 17 9 2 9 11 6 12 11 9 5 10 11 11 11 10 9 12 12 12 14 17 13 9 4 9 14 14 12 11 13 12 13 13 13 12 14 13 13 13 15 15 15 14 14 14 13 12 11 11 10 6 4 4 5 8 10 9 11 11 13 13 13 14 14 14 14 15 16 16 16 14 12 11 12 12 13
8 13 7 13 7 11 14 13 11 8 11 4 6 7 7 9 10 8 6 5 12 14 11 10 12 12 14 10 13 13 12 13 14 13 15 17 16 15 14 12 11 11 12 13 13 13 14 14 14 16 16 17 16 14 12 12 11 10 9 7 5 3 3 3 8 7 5 10 10 10 11 12 13 13 13 13 16 17 15 12 10 12 12 15 15 14
2 5 10 13 14 12 15 15 14 14 7 8 9 12 9 13 12 13 5 8 8 9 11 8 7 13 12 12 15 12 12 11 12 13 12 15 16 13 14 13 13 13 12 13 14 15 16 15 14 15 16 18 19 18 16 14 12 9 7 5 4 2 4 6 5 3 4 4 3 3 3 4 6 9 11 14 14 13 13 14 14 11 11 11 11 11
8 6 4 7 10 9 12 13 11 2 1 10 9 7 8 13 10 1 10 7 15 8 7 8 9 10 8 8 7 7 7 11 12 15 16 15 14 12 12 14 15 14 14 14 13 13 13 12 14 18 18 19 19 17 16 14 13 12 9 7 3 3 5 5 4 4 3 2 2 3 4 5 6 7 9 10 8 8 9 7 8 10 12 10 9 10
3 3 1 11 8 11 13 13 10 5 5 3 9 8 14 10 1 5 9 12 12 4 3 5 5 7 5 5 4 6 6 6 13 15 14 14 12 10 8 8 10 10 13 14 15 15 14 14 12 12 14 14 16 16 14 13 13 14 11 8 7 8 6 4 3 3 3 3 4 5 6 6 7 8 6 6 7 6 6 7 8 9 10 11 9 9
2 3 3 4 7 8 6 8 8 8 3 7 12 10 11 8 6 7 7 3 3 10 5 5 7 6 4 6 5 6 9 8 9 11 10 9 10 12 12 11 11 11 8 8 11 12 13 14 15 15 15 13 14 14 13 13 14 14 12 10 11 10 3 1 2 2 2 3 4 6 7 7 7 7 8 8 9 10 9 6 7 8 9 8 8 11
4 6 4 5 2 4 5 9 11 13 1 17 11 12 2 4 8 6 9 7 6 7 9 7 7 5 4 6 7 7 7 6 5 7 8 10 13 14 14 14 14 15 16 16 14 11 11 13 14 15 15 14 13 12 13 13 14 14 12 12 13 8 5 2 1 1 2 2 3 4 5 5 7 7 6 8 9 10 9 8 9 9 9 10 10 10
0 8 5 6 5 8 6 8 5 3 10 9 5 6 5 3 5 8 10 7 6 6 5 8 3 4 3 6 6 5 5 6 6 4 8 10 10 12 13 13 13 13 14 13 12 13 14 13 13 13 13 12 11 12 13 13 14 14 12 14 11 7 4 2 1 0 1 1 2 3 4 4 5 6 7 8 9 10 10 10 9 9 9 10 11 11
6 10 7 10 1 2 4 8 10 10 10 8 8 5 5 8 9 9 8 9 8 5 5 5 6 3 3 5 5 4 7 5 7 8 10 11 10 10 11 12 13 13 13 13 13 12 11 13 15 15 14 12 12 12 12 12 14 16 15 14 8 8 6 4 2 1 1 2 2 3 4 5 5 6 7 8 10 11 10 11 11 11 9 10 11 11
3 5 4 4 5 7 11 11 11 9 6 8 7 8 9 11 12 9 7 6 6 8 5 4 3 4 4 3 3 4 5 7 9 9 9 10 11 10 9 10 11 11 11 12 11 11 11 12 13 14 16 16 12 12 12 13 12 17 17 13 10 6 4 3 3 4 5 3 3 4 5 7 6 6 7 9 8 9 9 11 12 11 11 11 11 12
6 6 5 5 4 7 8 5 8 7 11 13 13 11 11 10 11 9 5 5 6 4 3 3 4 4 4 4 5 7 8 9 10 10 9 8 9 11 12 12 11 11 12 12 12 12 13 11 13 16 16 18 15 11 12 13 13 14 15 14 11 6 3 3 5 6 5 6 4 4 5 7 7 7 7 9 9 9 9 10 10 11 12 12 13 13
9 6 6 7 10 9 12 13 13 11 13 12 12 12 12 11 7 5 7 5 2 2 2 4 3 4 4 6 7 9 11 11 11 10 10 10 10 11 11 11 12 12 11 11 12 13 13 13 14 16 17 17 16 13 13 14 15 14 14 13 11 5 3 5 7 8 8 8 6 6 7 8 9 10 8 10 11 11 11 11 12 14 15 16 16 15
5 4 2 4 6 6 10 11 15 17 15 15 15 9 9 8 5 5 6 4 1 3 4 5 3 5 6 8 8 8 10 11 10 9 10 11 12 11 11 11 12 13 13 13 12 11 13 14 15 16 17 17 16 15 15 16 15 14 13 13 11 4 6 8 8 8 8 7 6 8 8 8 9 10 10 10 10 10 11 15 16 16 14 13 12 15
1 11 12 9 9 10 11 14 11 10 11 11 9 8 6 7 6 3 2 3 3 4 3 4 7 7 7 8 8 7 8 10 11 10 10 11 12 12 12 12 12 13 14 13 12 13 15 15 15 16 17 17 16 15 16 16 15 14 13 12 10 6 8 10 8 8 9 8 8 8 8 9 9 10 9 9 10 9 7 6 10 9 9 10 14 18
11 14 10 9 10 12 13 13 12 13 12 11 12 11 5 3 1 4 2 1 3 3 4 5 9 10 10 10 7 8 10 11 13 12 12 12 12 11 13 14 13 13 13 14 14 16 15 15 16 16 18 18 16 15 16 16 16 16 15 14 11 8 10 10 9 9 9 7 9 11 10 9 8 8 8 8 8 8 8 6 7 15 14 9 12 16
Wind_Direction
141 144 165 206 226 225 213 196 217 230 240 276 295 247 252 259 270 260 265 266 185 268 232 243 247 251 255 250 254 255 266 267 265 267 262 251 248 253 259 255 250 249 248 254 246 229 209 199 200 199 192 195 191 189 181 182 186 186 183 176 183 179 171 171 172 175 170 173 175 184 192 197 190 188 182 185 188 186 187 182 181 178 173 172 169 170
103 173 216 223 226 218 215 214 230 259 273 246 257 269 267 250 273 250 266 273 231 202 254 238 256 255 252 253 256 262 263 261 255 260 259 255 247 249 250 254 253 249 258 270 266 241 219 205 199 191 188 176 179 194 184 187 191 187 179 183 181 172 179 181 179 177 180 184 185 184 192 188 183 181 185 191 191 191 185 184 182 177 175 175 175 171
187 194 224 229 228 240 286 210 221 218 238 242 236 250 281 263 257 275 263 268 264 165 266 257 262 259 254 251 256 259 252 256 253 247 256 256 251 248 249 251 254 256 256 263 262 246 215 208 200 190 190 192 193 188 189 194 182 181 184 186 177 180 180 185 180 177 186 187 188 187 181 180 178 197 197 189 184 173 181 185 181 177 178 176 175 175
238 254 237 236 205 244 262 242 229 264 229 215 242 256 248 254 281 288 194 270 79 187 283 251 268 267 269 261 252 252 254 253 256 254 257 253 250 250 245 244 254 256 252 253 255 254 213 204 200 194 194 196 192 189 193 185 187 186 187 184 181 183 183 181 184 186 186 178 158 138 131 150 147 174 166 162 153 167 163 185 183 187 181 180 178 175
221 224 228 225 186 203 235 241 249 259 259 194 223 233 255 255 243 240 271 316 294 280 259 288 278 266 236 253 251 249 247 256 260 260 257 259 246 250 259 261 250 253 254 252 255 254 218 201 202 198 199 185 191 193 192 189 187 187 189 185 181 181 184 184 183 180 162 139 126 114 96 100 92 76 145 159 193 186 182 176 193 193 179 179 178 178
259 258 148 162 202 211 218 246 230 226 263 215 217 214 235 243 267 264 278 325 337 318 305 10 324 285 190 213 230 232 251 246 248 248 253 253 249 245 254 254 253 248 249 250 253 251 224 211 204 207 195 193 199 199 198 190 188 183 183 180 181 180 183 183 179 172 163 168 162 155 156 168 184 188 181 197 198 183 189 195 175 169 184 181 179 181
223 230 176 201 194 206 199 221 231 192 246 262 258 215 237 242 241 259 278 338 278 249 305 70 214 292 152 220 218 232 238 246 256 244 248 252 249 240 241 253 259 253 251 251 253 256 221 214 199 203 198 199 199 207 188 185 187 183 179 181 180 180 181 180 176 172 169 171 178 181 184 185 187 194 208 202 181 187 188 168 180 184 180 184 179 182
193 230 195 204 189 181 191 237 242 187 232 259 229 165 211 228 221 231 215 197 256 331 275 185 160 255 295 251 206 209 221 229 245 254 252 249 253 244 239 243 251 258 253 241 243 242 231 213 201 203 205 196 205 190 174 183 181 183 181 180 182 181 180 180 175 177 179 179 183 187 192 192 197 201 201 184 188 177 173 180 184 179 186 185 184 178
171 211 192 193 186 179 202 220 208 144 182 223 217 139 163 195 211 169 180 214 232 354 308 221 72 293 266 269 194 178 210 239 238 241 248 251 248 247 242 243 245 252 260 251 236 235 225 212 210 207 198 204 187 168 180 184 185 181 177 179 179 183 181 181 180 181 186 187 186 188 189 197 209 203 189 171 172 178 177 183 181 184 184 184 186 183
299 190 205 180 166 212 225 243 149 166 201 272 112 81 69 61 65 80 83 7 330 360 265 182 177 227 280 317 66 46 188 221 232 234 241 248 255 263 260 251 247 256 259 253 240 243 230 222 219 211 193 173 189 179 175 171 166 172 172 179 182 189 186 183 184 186 189 190 184 189 196 201 197 186 167 166 181 182 178 189 185 186 183 185 183 183
231 318 149 133 203 218 183 195 156 201 182 111 72 68 9 34 20 23 67 86 13 265 259 179 195 171 270 293 175 141 190 209 218 241 261 270 265 259 259 253 252 243 244 247 248 249 243 223 211 172 183 183 169 174 170 172 175 174 178 181 187 191 184 183 187 186 191 190 191 197 198 199 194 187 175 174 188 182 181 193 190 188 189 183 186 179
249 91 185 249 108 79 104 95 27 75 135 145 176 125 29 331 12 32 347 39 184 271 235 195 182 186 227 281 282 214 260 224 185 213 238 241 246 248 253 258 251 253 253 255 249 248 213 166 174 169 184 176 180 171 181 179 173 178 183 183 188 189 191 186 186 189 193 192 199 202 198 200 198 184 188 191 191 188 190 191 188 185 178 189 183 183
268 221 213 77 227 155 137 126 323 17 39 114 106 89 222 265 28 314 22 322 199 236 274 204 170 329 240 243 228 267 254 246 202 210 221 232 244 249 256 257 260 259 286 248 232 226 207 200 186 191 188 173 184 191 184 182 182 181 184 186 187 196 191 189 186 192 194 195 202 202 201 203 195 195 195 196 195 190 191 188 185 180 190 182 184 192
274 266 172 232 19 219 136 186 185 318 218 126 161 164 129 246 236 249 264 252 294 285 243 161 192 244 279 296 215 252 257 248 236 224 223 225 233 244 248 256 271 287 273 259 228 214 207 206 203 197 189 191 190 189 185 184 185 187 188 189 195 200 189 188 189 195 195 202 204 203 204 202 197 203 199 199 198 192 192 187 189 188 189 187 194 187
304 295 221 135 236 173 181 200 200 198 166 199 140 158 192 177 153 215 205 240 240 245 309 264 121 231 27 241 241 216 256 340 260 235 250 290 292 280 291 301 290 283 280 260 280 244 222 221 203 198 198 195 192 187 185 188 191 184 190 191 200 195 196 194 195 192 199 205 203 202 204 203 203 206 202 207 202 191 189 190 190 192 190 192 194 192
220 243 255 190 222 159 181 216 190 95 86 223 157 58 49 230 150 231 224 240 263 299 310 198 216 203 243 119 270 237 275 270 299 299 262 255 254 260 269 268 267 268 269 338 253 242 239 225 212 208 206 203 194 189 189 191 189 191 199 197 198 198 197 200 198 200 202 205 201 202 201 205 204 205 207 210 207 203 194 189 189 190 190 193 186 186
272 262 281 223 53 180 203 171 202 154 217 223 111 192 217 146 174 252 310 293 72 5 257 236 281 271 317 280 261 252 233 265 269 267 259 247 244 248 253 262 274 277 304 310 287 255 252 239 232 220 208 199 191 186 195 197 193 197 195 194 199 200 193 197 204 205 202 201 198 204 206 202 200 203 205 207 206 204 197 190 191 187 190 182 181 181
249 267 52 153 241 284 19 335 15 342 134 105 190 230 62 107 120 154 220 313 220 237 253 265 267 268 306 286 48 35 11 275 274 258 279 314 332 324 290 291 286 288 291 294 286 289 267 244 238 232 224 211 202 200 199 200 199 199 196 197 198 195 198 206 205 207 203 199 202 204 205 205 204 204 208 207 205 198 194 200 193 183 178 190 184 175
205 262 258 244 158 343 335 16 319 322 350 168 197 302 144 246 253 246 92 230 232 239 257 219 262 270 245 253 280 310 303 296 304 314 353 315 304 285 291 293 296 296 300 297 293 273 249 231 225 221 220 215 213 211 207 199 194 203 207 205 199 201 206 205 201 206 213 209 208 207 206 205 206 206 205 204 198 189 198 200 198 193 191 171 173 173
55 264 264 1 118 315 24 112 226 223 313 142 5 306 103 98 234 155 200 206 197 251 243 247 223 256 250 205 233 224 227 237 247 326 330 295 308 294 284 276 279 286 288 289 283 268 251 237 225 220 220 216 209 207 200 187 186 201 208 204 211 217 211 198 200 201 206 208 208 209 205 206 206 206 203 198 193 196 202 201 196 193 184 189 173 177
278 198 259 238 318 16 238 190 214 173 202 233 230 252 296 221 216 126 309 176 216 250 233 263 248 244 262 210 197 218 211 207 179 332 309 309 303 299 289 279 277 281 282 280 278 276 260 245 241 236 236 239 218 196 192 194 198 204 190 204 210 209 206 207 211 203 210 204 210 206 205 205 203 204 200 195 194 199 201 198 196 196 192 161 186 178
250 248 250 7 306 228 248 168 189 190 194 206 198 218 218 223 257 256 255 184 255 232 250 249 254 246 290 296 234 227 208 233 278 273 277 275 270 267 265 262 255 261 266 264 271 279 292 291 272 256 253 248 226 215 206 207 198 191 196 206 205 210 215 214 213 208 211 204 209 206 209 206 202 198 194 198 195 197 198 197 196 192 177 189 186 180
161 164 268 233 228 242 259 270 184 221 217 217 188 248 219 233 234 234 254 231 266 239 299 270 291 240 349 297 290 291 289 282 274 269 273 272 261 248 250 251 255 247 252 267 272 274 269 259 259 261 236 218 220 227 229 216 202 204 209 208 206 206 216 209 212 213 211 207 206 209 209 203 196 191 195 196 198 200 197 196 190 182 190 191 184 183
65 155 106 254 271 273 269 279 285 186 193 302 269 226 206 232 213 234 242 232 243 260 278 263 248 261 206 255 270 283 280 284 281 257 268 269 269 262 259 260 258 260 265 266 266 262 261 255 228 218 221 224 224 220 218 218 215 214 214 211 207 211 219 213 214 208 205 208 211 210 203 201 196 192 195 198 201 202 198 188 186 181 188 189 183 183
203 219 192 256 246 279 276 294 278 262 133 210 222 213 220 235 240 248 273 66 261 225 239 248 254 242 236 261 275 284 288 285 283 279 271 273 270 267 257 257 259 261 264 268 272 286 291 277 252 232 228 225 226 225 222 227 227 218 217 210 210 217 219 214 215 210 211 208 210 203 200 202 195 196 198 203 203 204 194 188 182 179 185 181 184 187
225 200 160 216 230 251 250 238 228 234 234 232 174 211 223 219 230 245 251 226 248 230 230 244 254 245 255 255 264 266 272 281 285 286 281 270 270 272 264 254 257 257 258 260 268 291 265 247 243 250 245 240 233 224 220 223 226 227 225 222 216 219 219 214 209 209 210 208 207 205 202 199 195 200 201 203 203 200 192 185 181 183 184 182 183 178
234 196 209 226 235 249 250 257 252 215 204 225 225 209 229 220 227 230 245 249 246 255 242 240 248 261 247 247 251 256 263 269 278 282 284 288 283 267 264 264 251 251 255 269 294 252 257 267 259 250 248 240 236 227 224 223 229 232 230 230 222 220 218 212 204 209 208 208 206 206 204 199 199 202 203 202 200 194 186 184 185 182 184 181 179 177
2 232 223 234 238 245 252 253 259 246 251 240 245 243 236 237 236 236 237 246 244 258 258 226 243 247 245 243 252 261 265 265 265 269 280 288 282 278 276 254 247 253 276 332 299 285 276 276 280 278 264 234 224 223 222 224 229 230 228 229 224 217 215 209 201 206 208 207 208 210 207 203 205 204 203 198 193 188 187 185 184 186 182 174 178 182
177 243 239 239 249 244 246 253 251 257 251 253 245 248 246 243 243 244 245 247 243 240 255 245 232 242 246 242 251 256 259 260 264 271 273 276 285 287 282 279 272 269 270 270 269 271 274 276 276 276 278 278 272 262 251 247 244 239 239 236 230 210 213 205 200 208 208 208 211 212 208 207 207 203 196 192 189 186 186 187 185 179 178 180 181 180
229 248 249 241 253 244 246 242 246 246 255 253 252 247 246 246 247 245 250 247 243 251 256 263 261 263 266 266 253 252 254 261 264 268 276 282 281 282 286 286 300 311 308 281 280 277 273 270 267 265 265 267 266 265 261 256 251 244 236 236 227 216 216 189 206 208 209 209 212 211 208 206 199 194 192 191 190 190 188 183 179 179 178 181 180 176
237 259 239 250 255 247 250 248 250 245 250 251 249 246 246 244 246 244 252 256 260 261 261 261 260 261 257 259 262 259 260 262 268 271 270 272 278 282 292 320 352 4 358 352 347 337 322 303 289 281 276 271 267 263 259 255 254 253 244 241 230 219 213 195 210 208 207 212 213 210 206 200 198 192 194 195 191 187 181 181 177 177 177 176 175 174
280 284 282 276 273 259 240 247 246 247 246 245 247 247 250 247 248 243 243 241 242 252 253 256 259 262 259 253 256 257 260 262 266 270 273 276 292 326 7 19 16 10 0 354 353 352 349 345 333 316 300 287 277 272 268 265 259 253 247 240 227 222 202 201 210 208 212 215 210 205 198 198 194 193 196 187 190 183 181 172 173 177 177 175 176 177
225 284 277 288 272 268 256 256 265 260 258 251 244 241 242 242 243 248 245 247 243 248 255 252 250 268 306 339 338 334 325 311 299 294 300 351 21 24 11 7 7 0 355 346 344 344 343 340 335 331 323 311 298 283 272 265 264 258 249 242 232 213 186 204 207 211 216 213 204 202 197 195 192 194 189 191 186 179 172 176 176 178 177 183 180 167
258 252 261 263 268 288 310 291 304 286 239 254 256 255 251 253 252 249 249 247 249 239 256 274 335 29 31 19 18 346 346 325 316 354 62 48 14 5 356 355 349 344 341 340 336 335 333 333 331 327 320 312 301 291 286 286 285 281 278 272 247 180 206 201 211 211 215 209 203 199 194 192 191 192 192 185 180 177 179 179 184 183 180 170 167 178
259 269 268 266 273 277 283 285 279 259 269 262 203 207 226 238 244 251 258 262 279 330 15 32 14 24 28 23 11 350 330 318 315 50 64 49 25 6 342 337 341 339 334 333 332 332 331 327 326 328 329 329 321 310 307 304 297 297 294 290 271 241 219 214 213 215 216 207 204 191 191 190 190 192 187 183 179 177 181 184 181 175 177 175 178 177
242 247 260 252 255 268 251 248 253 260 273 6 297 314 340 330 316 296 276 325 22 27 23 19 1 15 23 8 0 351 340 322 308 142 55 26 23 354 348 333 329 330 330 328 326 323 326 326 323 322 320 319 320 316 314 306 306 301 283 280 244 237 219 218 216 221 215 210 202 198 197 192 191 190 184 179 179 181 184 183 182 180 174 171 176 178
240 254 249 266 232 262 260 258 259 279 273 252 306 13 1 354 325 324 306 71 9 15 339 1 348 32 12 6 358 345 342 335 334 280 15 3 352 344 338 326 317 319 321 320 321 317 318 318 321 322 322 323 323 322 321 320 315 306 300 301 289 254 245 224 229 226 213 213 206 204 198 193 190 189 185 181 180 186 186 182 181 175 167 170 177 176
224 230 223 250 230 237 259 270 279 274 265 26 351 275 338 321 303 271 260 194 39 4 344 341 6 21 359 350 357 343 336 347 345 330 338 341 339 334 328 325 320 317 323 321 322 322 325 328 330 331 331 328 329 327 324 320 316 311 310 316 339 328 286 258 246 244 231 227 221 212 203 195 190 188 184 182 188 188 187 181 174 175 173 177 174 180
318 247 249 249 267 268 270 270 267 270 270 80 344 326 332 326 307 297 200 203 61 9 334 16 330 356 347 348 340 353 353 344 315 313 323 328 324 330 325 322 328 325 324 328 329 329 331 332 332 331 333 336 337 335 331 323 324 334 334 338 346 346 292 259 275 313 283 286 307 280 239 210 196 192 188 191 194 184 180 180 180 173 170 178 175 176
344 296 292 269 280 272 281 275 270 292 50 9 339 325 324 309 310 342 236 189 2 13 308 9 335 326 338 320 303 339 349 318 314 310 314 315 315 319 325 323 326 330 329 328 333 328 325 327 336 339 341 338 333 331 331 328 327 326 337 338 360 314 273 273 283 267 266 252 190 169 174 183 194 197 195 199 186 182 182 164 159 168 173 174 170 167
316 323 260 270 275 282 281 279 289 277 141 24 346 319 338 312 72 342 289 321 324 325 288 317 287 290 264 266 265 299 273 248 273 285 296 303 311 316 318 314 310 319 326 328 326 329 328 332 335 331 329 328 328 330 330 331 329 321 325 332 332 299 281 254 262 246 222 177 164 168 174 171 182 184 178 166 167 159 158 167 169 164 171 170 166 161
297 230 266 264 265 261 270 275 261 290 213 26 346 15 328 10 4 277 305 324 287 282 250 260 273 272 238 253 265 246 274 278 274 281 296 309 320 315 317 319 317 312 310 312 312 321 326 324 328 328 329 328 329 328 329 331 326 317 319 326 311 304 302 296 243 196 175 186 181 176 172 175 173 171 162 151 151 159 164 157 153 165 166 166 167 168
246 292 244 259 274 282 255 269 269 269 293 6 334 349 63 86 246 263 289 265 237 258 277 283 274 269 240 264 266 272 276 284 282 294 309 321 317 317 316 320 321 321 323 326 326 323 324 323 323 325 324 326 328 328 325 327 320 315 314 311 300 316 315 279 236 199 174 165 176 180 174 167 163 157 152 153 154 157 159 155 156 163 165 165 166 170
335 285 273 260 215 260 248 243 237 355 318 325 6 283 305 240 254 282 286 280 243 229 247 273 262 257 261 268 285 281 255 263 280 289 297 296 300 302 306 309 313 315 315 313 317 322 324 322 319 318 320 321 324 324 322 320 313 309 307 298 300 311 319 340 354 84 179 193 189 168 161 157 155 151 154 155 154 159 158 160 161 163 175 172 171 173
183 217 238 263 340 283 218 271 281 294 296 296 277 252 249 283 298 278 247 258 268 256 234 240 271 261 221 246 259 262 284 277 284 295 296 293 294 298 304 310 310 311 311 313 317 322 321 319 320 317 315 319 322 320 317 313 305 302 299 294 300 300 300 308 342 318 232 205 174 165 154 145 157 158 157 159 160 163 166 163 164 170 178 176 181 180
279 271 243 280 238 243 255 249 273 281 275 276 275 278 292 298 293 273 248 253 237 255 272 250 244 265 275 262 271 272 273 289 293 290 293 299 301 300 297 298 302 301 305 310 313 317 320 316 313 314 314 314 318 315 311 306 301 296 294 295 295 287 285 287 288 272 256 224 194 178 155 156 158 164 165 164 169 172 173 172 176 177 177 182 189 188
238 234 256 227 267 274 273 251 252 262 277 279 279 287 290 281 266 267 255 237 248 247 264 265 256 258 260 281 281 286 293 295 296 295 297 301 299 300 304 304 303 307 312 314 311 317 317 317 312 311 311 307 311 311 302 299 295 289 290 293 293 287 252 241 242 249 238 224 204 182 176 179 177 174 178 178 175 174 172 176 182 183 184 188 189 191
279 198 216 238 252 235 257 260 274 271 263 273 282 288 287 277 261 264 256 237 215 241 246 268 298 300 302 306 303 307 302 301 301 302 303 303 301 303 302 301 305 308 308 307 311 313 310 310 309 306 308 306 306 307 301 296 294 292 291 291 293 273 233 235 234 233 233 219 201 195 193 198 187 180 185 192 189 183 180 186 187 188 192 190 191 187
255 32 212 203 227 250 273 283 273 273 279 275 271 265 254 256 247 239 251 272 306 346 308 304 324 309 320 297 304 301 298 293 294 301 300 300 300 297 298 302 306 306 305 307 305 308 304 303 302 300 300 300 302 302 301 296 293 294 294 292 288 244 230 242 237 233 231 217 204 210 202 202 192 197 194 196 200 209 202 189 189 198 204 208 198 195
227 242 252 263 268 253 249 260 268 284 280 279 279 272 270 262 258 218 228 293 318 305 311 322 307 304 296 294 298 300 288 292 296 301 298 291 289 294 296 297 298 299 298 295 298 300 297 294 296 301 300 296 299 298 295 295 297 297 296 293 285 246 242 247 241 230 230 211 208 210 200 208 206 202 200 198 201 201 210 238 229 224 212 206 202 208
225 240 244 242 240 255 249 248 247 253 266 267 276 286 262 245 11 323 342 308 289 311 340 322 300 300 298 295 297 293 291 291 292 296 292 288 284 288 291 293 294 292 290 295 298 294 292 297 301 303 299 296 296 295 295 294 295 296 298 299 290 260 246 245 244 239 235 217 216 211 204 205 204 200 203 201 197 195 195 197 212 220 223 223 207 203